www.pogodaiklimat.ru

Погода и климат >> Архив погоды >> Франция >> Ренн


ПОГОДА в Ренне

  • Прогноз погоды в Ренне
  • Монитор погоды в Ренне

АРХИВ ПОГОДЫ в Ренне

Время (UTC), дата Ветер
(напр.,м/с)
 
Видим.   Явления Облачность Т
(С)
Тd
(С)
f
(%)
Тe
(С)
Тes
(С)
Комфортность P
(гПа)
Po
(гПа)
Тmin
(С)
Tmax
(С)
R
(мм)
R24
(мм)
S
(см)
19 16.09 С 3 55 км н/о +16.5 +14.1 86 +16 +16 1022.4 1018.0
20 16.09 СЗ 2 50 км 9/9 300 м
[]
+16.2 +14.2 88 +16 +16 1022.6 1018.2
21 16.09 СЗ 5
{9}
29 км 10/10 300 м
[]
+16.3 +14.1 87 +15 +15 1022.6 1018.2 0
22 16.09 С 3 22 км 10/10 300 м
[]
+16.6 +14.4 87 +16 +16 1022.8 1018.4
23 16.09 С 2 23 км 10/10 300 м
[]
+16.7 +14.7 88 +17 +17 1022.6 1018.2
00 17.09 С 5
{8}
25 км 10/10 200 м
[]
+16.7 +14.7 88 +16 +16 1022.3 1017.9 0
01 17.09 С 2 35 км 10/10 300 м
[]
+16.7 +14.5 87 +17 +17 1022.2 1017.8
02 17.09 С 2 50 км 10/10 330 м
[]
+16.9 +14.5 86 +17 +17 1022.0 1017.6
03 17.09 С 3
{7}
35 км 10/10 300 м
[]
+16.4 +14.2 87 +16 +16 1021.8 1017.4 0
04 17.09 С 2 30 км 10/10 330 м
[]
+16.5 +14.1 86 +17 +17 1021.7 1017.3
05 17.09 С 2 30 км 10/10 360 м
[]
+16.4 +13.9 85 +16 +16 1021.9 1017.5
06 17.09 С 3
{6}
35 км 10/10 300 м
[]
+16.4 +13.9 85 +16 +16 1022.3 1017.9 +16.0 +17.9 0
07 17.09 СВ 2 45 км 10/10 360 м
[]
+16.7 +14.0 84 +17 +17 1022.5 1018.1
08 17.09 СВ 2 45 км 10/10 400 м
[]
+17.5 +14.2 81 +18 +18 1022.9 1018.5
09 17.09 СВ 4
{6}
45 км 8/8 300 м
[]
+19.2 +14.5 74 +21 +21 комфорт 1022.9 1018.5 0
10 17.09 СВ 2 28 км 9/9 660 м
[]
+21.7 +14.8 65 +25 +26 комфорт 1022.5 1018.2
11 17.09 С 2 50 км 10/10 720 м
[]
+21.6 +14.7 65 +25 +25 комфорт 1022.2 1017.9
12 17.09 С 5
{8}
45 км 10/10 600 м
[]
+20.9 +15.0 69 +24 +24 комфорт 1022.2 1017.8 0
13 17.09 С 3 35 км 10/10 800 м
[]
+21.3 +15.4 69 +24 +24 комфорт 1021.8 1017.5
14 17.09 С 3 28 км 10/10 1500 м
[]
+21.7 +15.3 67 +25 +25 комфорт 1021.7 1017.4
15 17.09 С 5
{10}
50 км 10/10 600 м
[]
+21.2 +15.7 71 +24 +24 комфорт 1021.6 1017.3 0
16 17.09 С 3 30 км 9/1 840 м
[]
+21.8 +14.9 65 +25 +26 комфорт 1021.3 1017.0
17 17.09 С 3 45 км н/о +21.7 +14.1 62 +25 +25 комфорт 1021.2 1016.9
18 17.09 С 6
{9}
55 км н/о +20.2 +13.2 64 +22 +22 комфорт 1021.3 1016.9 +16.4 +22.6 0
19 17.09 С 2 50 км н/о +18.7 +12.9 69 +20 +20 1021.6 1017.2
20 17.09 С 3 45 км н/о +17.5 +12.4 72 +18 +18 1022.2 1017.8
21 17.09 С 5
{10}
50 км н/о +16.1 +11.9 76 +15 +15 1022.7 1018.3 0
22 17.09 С 2 23 км н/о +14.6 +10.8 78 +14 +14 1023.2 1018.7
23 17.09 С 2 21 км н/о +13.6 +10.6 82 +13 +13 1023.2 1018.7
00 18.09 С 3
{5}
19 км н/о +12.9 +10.4 85 +12 +12 1023.1 1018.6 0
01 18.09 С 2 21 км н/о +12.3 +10.0 86 +12 +12 1023.5 1019.0
02 18.09 СВ 3 29 км н/о +12.9 +9.5 80 +12 +12 1023.7 1019.2
03 18.09 СВ 7
{12}
35 км н/о +12.7 +8.8 77 +10 +10 1023.7 1019.2 0
04 18.09 СВ 3 45 км н/о +12.1 +8.2 77 +11 +11 1023.7 1019.2
05 18.09 СВ 3 45 км н/о +11.7 +7.4 75 +10 +10 1023.9 1019.4
06 18.09 С 4
{8}
45 км н/о +10.8 +6.9 77 +8 +8 1024.4 1019.9 +10.8 +20.2 0
07 18.09 С 2 35 км н/о +11.9 +7.2 73 +11 +11 1025.0 1020.5
08 18.09 С 3 21 км н/о +13.6 +6.7 63 +13 +13 1025.5 1021.0
09 18.09 СВ 7
{11}
28 км н/о +15.5 +6.2 54 +14 +14 1025.4 1020.9 0
10 18.09 СВ 4 28 км н/о +18.1 +6.3 46 +18 +18 1025.4 1021.0
11 18.09 СВ 4 28 км н/о +19.1 +4.1 37 +19 +19 1025.0 1020.6
12 18.09 СВ 8
{12}
28 км н/о +20.6 +2.9 31 +21 +21 комфорт 1024.9 1020.5 0
13 18.09 СВ 4 29 км н/о +21.4 +3.6 31 +22 +22 комфорт 1024.6 1020.2
14 18.09 СВ 4 30 км н/о +22.0 +3.1 29 +22 +22 комфорт 1024.4 1020.0
15 18.09 СВ 8
{13}
40 км н/о +21.8 +2.5 28 +22 +22 комфорт 1023.9 1019.5 0
16 18.09 СВ 4 40 км н/о +21.7 +3.4 30 +22 +22 комфорт 1023.7 1019.3
17 18.09 СВ 4 40 км н/о +20.9 +4.0 33 +22 +22 комфорт 1023.7 1019.3
18 18.09 С 5
{11}
55 км н/о +19.1 +5.2 40 +19 +19 1024.0 1019.6 +10.8 +22.3 0
19 18.09 С 3 55 км н/о +17.6 +7.0 50 +18 +18 1024.8 1020.4
20 18.09 С 3 40 км н/о +16.1 +8.3 60 +16 +16 1025.5 1021.1
21 18.09 С 5
{10}
35 км н/о +15.0 +8.9 67 +14 +14 1026.1 1021.6 0
22 18.09 С 2 35 км н/о +14.1 +9.3 73 +14 +14 1026.7 1022.2
23 18.09 С 2 35 км н/о +13.4 +9.1 75 +13 +13 1026.8 1022.3
00 19.09 С 4
{7}
40 км н/о +12.8 +8.7 76 +11 +11 1026.9 1022.4 0
01 19.09 С 2 40 км н/о +12.4 +8.3 76 +12 +12 1026.9 1022.4
02 19.09 С 2 40 км н/о +11.7 +7.6 76 +11 +11 1026.8 1022.3
03 19.09 С 4
{7}
45 км н/о +11.4 +7.3 76 +9 +9 1026.7 1022.2 0
04 19.09 С 2 45 км н/о +11.0 +7.1 77 +10 +10 1026.6 1022.1
05 19.09 С 2 40 км н/о +10.6 +6.7 77 +9 +9 1026.5 1022.0
06 19.09 С 4
{6}
40 км н/о +10.2 +6.7 79 +8 +8 1026.8 1022.3 +10.1 +19.1 0
07 19.09 С 2 30 км н/о +11.5 +7.0 74 +10 +10 1026.9 1022.4
08 19.09 СВ 3 40 км н/о +14.3 +6.9 61 +13 +13 1027.5 1023.0
09 19.09 СВ 7
{11}
45 км н/о +17.3 +6.5 49 +16 +16 1027.6 1023.2 0
10 19.09 СВ 4 40 км н/о +19.0 +5.1 40 +19 +19 1027.5 1023.1
11 19.09 СВ 4 35 км н/о +19.8 +5.4 39 +21 +21 комфорт 1027.1 1022.7
12 19.09 СВ 6
{12}
45 км н/о +21.3 +6.0 37 +22 +22 комфорт 1026.4 1022.0 0
13 19.09 СВ 4 30 км н/о +21.5 +6.2 37 +22 +22 комфорт 1025.7 1021.3
14 19.09 СВ 4 30 км н/о +22.7 +6.4 35 +23 +23 комфорт 1024.9 1020.6
15 19.09 СВ 8
{13}
45 км н/о +22.6 +5.9 34 +23 +23 комфорт 1024.4 1020.1 0
16 19.09 СВ 4 30 км н/о +22.1 +6.3 36 +23 +23 комфорт 1024.1 1019.7
17 19.09 СВ 4 45 км н/о +21.4 +5.7 36 +22 +22 комфорт 1024.1 1019.7
18 19.09 СВ 7
{13}
55 км н/о +19.8 +5.4 39 +20 +20 1024.1 1019.7 +10.2 +23.0 0
19 19.09 СВ 3 60 км н/о +18.4 +5.9 44 +19 +19 1024.6 1020.2
20 19.09 СВ 3 60 км н/о +17.4 +5.7 46 +18 +18 1024.9 1020.5
21 19.09 СВ 5
{9}
60 км н/о +16.2 +5.5 49 +15 +15 1025.2 1020.8 0
22 19.09 СВ 3 60 км н/о +15.1 +4.7 50 +15 +15 1025.2 1020.7
23 19.09 СВ 3 60 км н/о +14.5 +4.5 51 +14 +14 1024.7 1020.2
00 20.09 СВ 5
{8}
60 км н/о +13.7 +4.0 52 +12 +12 1024.3 1019.8 0
01 20.09 СВ 2 60 км н/о +12.5 +4.2 57 +12 +12 1024.0 1019.5
02 20.09 СВ 2 60 км н/о +11.4 +3.9 60 +11 +11 1023.6 1019.1
03 20.09 СВ 4
{7}
60 км н/о +11.5 +4.0 60 +10 +10 1023.0 1018.5 0
04 20.09 СВ 2 60 км н/о +11.3 +4.0 61 +11 +11 1022.4 1017.9
05 20.09 В 2 60 км н/о +10.8 +3.6 61 +10 +10 1021.9 1017.4
06 20.09 СВ 4
{7}
60 км н/о +9.7 +3.6 66 +7 +7 1021.8 1017.3 +9.5 +19.8 0
07 20.09 В 2 30 км н/о +12.1 +3.8 57 +11 +11 1021.5 1017.0
08 20.09 В 3 50 км н/о +14.1 +3.8 50 +13 +13 1021.5 1017.0
09 20.09 В 6
{9}
45 км н/о +16.9 +4.2 43 +16 +16 1020.8 1016.4 0
10 20.09 В 4 45 км н/о +19.5 +4.0 36 +20 +20 1020.1 1015.7
11 20.09 В 4 35 км н/о +21.3 +3.0 30 +21 +21 комфорт 1019.2 1014.9
12 20.09 В 7
{14}
45 км н/о +22.6 +2.6 27 +22 +22 комфорт 1018.5 1014.2 0
13 20.09 В 3 35 км н/о +24.0 +2.2 24 +23 +23 комфорт 1017.7 1013.4
14 20.09 В 3 35 км н/о +24.8 +2.2 23 +24 +24 комфорт 1016.9 1012.6
15 20.09 В 6
{11}
40 км н/о +25.9 +3.2 23 +25 +25 комфорт 1016.0 1011.7 0
16 20.09 В 3 40 км н/о +25.4 +2.7 23 +24 +24 комфорт 1015.4 1011.1
17 20.09 В 3 50 км н/о +24.6 +3.3 25 +24 +24 комфорт 1015.1 1010.8
18 20.09 В 4
{9}
60 км н/о +22.7 +4.2 30 +23 +23 комфорт 1015.0 1010.7 +9.6 +25.9 0
19 20.09 В 1 50 км н/о +19.8 +4.3 36 +21 +21 комфорт 1015.0 1010.6
20 20.09 В 2 55 км н/о +20.1 +4.1 35 +21 +21 комфорт 1014.6 1010.3
21 20.09 В 2
{6}
60 км н/о +18.9 +4.3 38 +20 +20 1014.4 1010.0 0
22 20.09 В 3 60 км н/о +19.1 +4.1 37 +20 +20 1014.1 1009.7
23 20.09 В 2 60 км н/о +18.4 +4.5 40 +19 +19 1013.4 1009.0
00 21.09 В 4
{8}
60 км н/о +17.7 +4.6 42 +17 +17 1012.7 1008.3 0
01 21.09 В 2 60 км н/о +17.4 +5.0 44 +18 +18 1012.4 1008.0
02 21.09 В 2 60 км н/о +16.9 +5.2 46 +17 +17 1011.9 1007.5
03 21.09 В 3
{6}
55 км н/о +16.1 +5.4 49 +16 +16 1011.6 1007.2 0
04 21.09 В 2 60 км н/о +16.0 +6.1 52 +16 +16 1011.0 1006.6
05 21.09 В 2 60 км н/о +15.3 +6.3 55 +16 +16 1011.1 1006.7
06 21.09 В 3
{6}
55 км н/о +15.0 +7.0 59 +14 +14 1011.0 1006.6 +14.9 +22.7 0
07 21.09 В 2 45 км н/о +16.1 +8.3 60 +16 +16 1010.9 1006.5
08 21.09 В 3 45 км н/о +18.1 +10.0 59 +18 +18 1010.6 1006.2
09 21.09 В 5
{8}
45 км н/о +21.1 +12.0 56 +23 +23 комфорт 1010.2 1005.9 0
10 21.09 ЮВ 3 40 км н/о +23.3 +13.5 54 +27 +27 душно 1009.7 1005.4
11 21.09 ЮВ 3 40 км н/о +25.8 +14.3 49 +28 +28 жарко 1009.2 1005.0
12 21.09 ЮВ 6
{10}
29 км 9/0
[]
+26.1 +14.9 50 +29 +31 жарко 1008.6 1004.4 0
13 21.09 Ю 4 27 км 8/1 1350 м
[]
+26.4 +14.8 49 +29 +33 жарко 1008.1 1003.9
14 21.09 ЮВ 4 40 км 9/9
[]
+26.1 +14.9 50 +29 +29 жарко 1007.7 1003.5
15 21.09 ЮВ 8
{12}
50 км 10/10 1000 м
[]
+27.8 +15.1 46 +30 +30 жарко 1007.1 1002.9 0
16 21.09 Ю 4 45 км н/о +26.4 +13.8 46 +29 +29 жарко 1006.4 1002.2
17 21.09 ЮВ 4 30 км н/о +26.3 +14.1 47 +29 +29 жарко 1006.0 1001.8
18 21.09 Ю 3
{9}
50 км н/о +24.2 +14.0 53 +27 +27 жарко 1005.9 1001.7 +15.0 +28.3 0
19 21.09 Ю 1 40 км н/о +22.7 +14.5 60 +26 +26 жарко 1006.1 1001.8
20 21.09 ЮВ 2 40 км 9/9
[]
+22.3 +14.7 62 +26 +26 жарко 1005.7 1001.4
21 21.09 ЮВ 3
{6}
40 км 10/10 1500 м
[]
+21.7 +14.6 64 +25 +25 комфорт 1005.5 1001.2 0
22 21.09 ЮВ 2 35 км н/о +21.0 +14.6 67 +25 +25 комфорт 1005.0 1000.7
23 21.09 В 2 35 км н/о +19.9 +14.7 72 +23 +23 комфорт 1004.6 1000.3
00 22.09 В 4
{6}
35 км н/о +18.9 +14.8 77 +20 +20 1004.3 1000.0 0
01 22.09 ЮВ 2 35 км 9/9 2000 м
[]
+19.3 +15.6 79 +22 +22 комфорт 1004.1 999.8
02 22.09 Ю 3 45 км 10/10 1500 м
[]
+20.0 +16.0 78 +23 +23 комфорт 1003.4 999.1
03 22.09 Ю 2
{7}
35 км 10/10 600 м
[]
+18.6 +16.6 88 +20 +20 1003.5 999.2 0.0 0
04 22.09 Ю 1 17 км 10/10 630 м
[]
+18.4 +16.9 91 +20 +20 1003.3 999.0 0.4
05 22.09 ЮЗ 2 11 км слаб. дождь 10/1 270 м
[]
+15.9 +14.8 93 +16 +16 1004.0 999.7 4
06 22.09 Ю 4
{6}
21 км слаб. дождь 10/0 2000 м
[]
+15.6 +14.8 95 +15 +15 1004.5 1000.1 +15.6 +24.1 5 0
07 22.09 Ю 3 60 км 10/9 300 м
[]
+15.4 +14.3 93 +15 +15 1005.6 1001.2 0.2
08 22.09 Ю 3 60 км 9/6 240 м
[]
+15.9 +14.6 92 +15 +16 1006.0 1001.6
09 22.09 Ю 7
{11}
40 км 10/10 300 м
[]
+16.4 +14.6 89 +15 +15 1006.2 1001.8 0.2
10 22.09 Ю 4 30 км н/о +18.4 +14.7 79 +19 +19 1006.5 1002.2
11 22.09 Ю 4 30 км 9/9 1000 м
[]
+20.6 +13.8 65 +23 +24 комфорт 1006.6 1002.3
12 22.09 Ю 9-16
{16}
28 км 8/8 1000 м
[]
+21.2 +12.6 58 +23 +24 комфорт 1006.5 1002.2 0
13 22.09 ЮЗ 4 25 км н/о +21.9 +12.7 56 +24 +24 комфорт 1006.6 1002.3
14 22.09 З 3 35 км 9/4 1140 м
[]
+18.7 +13.1 70 +20 +22 1007.2 1002.9
15 22.09 ЮЗ 6
{13}
55 км 8/8 600 м
[]
+19.4 +12.2 63 +20 +21 1007.4 1003.1 0.2 0
16 22.09 ЮЗ 4 40 км н/о +20.2 +10.3 53 +22 +22 комфорт 1007.6 1003.3
17 22.09 Ю 4 40 км н/о +17.9 +12.6 71 +18 +18 1008.3 1004.0
18 22.09 Ю 5
{11}
55 км н/о +16.2 +13.1 82 +15 +15 1009.0 1004.6 +15.4 +21.9 0
19 22.09 Ю 3 12 км дождь 9/9 1500 м
[]
+16.0 +13.1 83 +16 +16 1009.7 1005.3 0.2
20 22.09 Ю 2 35 км н/о +15.0 +13.5 91 +15 +15 1010.4 1006.0 0.2
21 22.09 ЮЗ 4
{7}
45 км 9/9 1000 м
[]
+14.8 +13.3 91 +14 +14 1011.4 1007.0 0.4 0
22 22.09 ЮЗ 2 55 км 8/3 500 м
[]
+14.9 +12.9 88 +15 +15 1012.1 1007.7
23 22.09 ЮЗ 2 45 км н/о +14.2 +12.8 91 +14 +14 1013.1 1008.7
00 23.09 ЮЗ 4
{6}
35 км н/о +14.1 +12.7 91 +13 +13 1013.8 1009.4 0
01 23.09 Ю 2 27 км н/о +12.7 +11.8 94 +12 +12 1014.2 1009.8
02 23.09 Ю 2 17 км н/о +12.1 +11.6 97 +11 +11 1014.3 1009.8
03 23.09 Ю 3
{4}
11 км н/о +11.8 +11.3 97 +10 +10 1014.7 1010.2 0
04 23.09 ЮВ 2 11 км н/о +11.7 +11.4 98 +11 +11 1014.9 1010.4
05 23.09 Ю 2 12 км н/о +12.0 +11.7 98 +11 +11 1014.9 1010.4 0.2
06 23.09 ЮВ 3
{4}
13 км н/о +12.3 +12.0 98 +11 +11 1014.7 1010.2 +11.4 +16.4 0.2 0
07 23.09 Ю 2 24 км 9/9 800 м
[]
+13.8 +13.0 95 +13 +13 1014.7 1010.3 0.0
08 23.09 Ю 3 19 км н/о +15.5 +14.0 91 +15 +15 1015.0 1010.6
09 23.09 Ю 6
{10}
26 км 10/10 200 м
[]
+17.0 +15.0 88 +16 +16 1015.4 1011.0 0.0 0
10 23.09 Ю 3 30 км 10/4 600 м
[]
+18.1 +14.4 79 +19 +20 1015.0 1010.6
11 23.09 Ю 3 35 км 10/4 720 м
[]
+18.6 +13.2 71 +19 +22 1014.3 1009.9
12 23.09 Ю 5
{12}
28 км слаб. дождь 9/9 300 м
[]
+17.2 +14.5 84 +17 +17 1014.4 1010.0 0.4 0
13 23.09 Ю 3 7000 м дождь 10/1 600 м
[]
+15.9 +14.1 89 +15 +19 1014.3 1009.9 0.8
14 23.09 Ю 3 50 км 10/9 700 м
[]
+17.1 +14.4 84 +17 +17 1013.9 1009.5 0.2
15 23.09 Ю 6
{10}
45 км 10/10 600 м
[]
+17.3 +13.8 80 +16 +16 1013.7 1009.3 1 0
16 23.09 Ю 3 45 км 10/9 450 м
[]
+17.0 +14.5 85 +17 +17 1013.3 1008.9 0.0
17 23.09 Ю 3 2700 м слаб. дождь 10/10 240 м
[]
+16.0 +14.9 93 +15 +15 1013.2 1008.8 0.4
18 23.09 Ю 7
{11}
17 км 10/10 300 м
[]
+16.0 +14.7 92 +14 +14 1013.1 1008.7 +12.3 +19.1 0.6 0
19 23.09 Ю 3 3000 м дождь 10/10 180 м
[]
+15.8 +15.2 96 +15 +15 1013.1 1008.7 0.6

 

Местоположение метеостанции Ренн (Франция): широта 48.07 долгота -1.73 высота над уровнем моря 43 м.

В архиве по умолчанию представлена погода в Ренне за последнюю неделю. Архивные данные за месяц целиком и за предыдущие месяцы, начиная с января 2011 года, Вы можете получить, выбрав интересующий диапазон дат из раскрывающегося списка и нажав кнопку "Ввод!".


*Определитесь, кто Вы:
робот инопланетянин человек

Внимание! Время в таблицах - всемирное. Для получения местного времени необходимо прибавить поправку, которая равна 1 ч.

Смотрите также архив погоды в соседних городах и на ближайших метеорологических станциях:

Погода в Динаре (Франция) (62 км)
Погода в Лавале (Франция) (74 км)
Погода на Пуэнт-дю-Оке (Франция) (85 км)
Погода в Сен-Назере (Франция) (90 км)
Погода в Сен-Бриё аэропорту (Франция) (97 км)
Погода на Шемулене (Франция) (103 км)
Погода в Нанте (Франция) (103 км)
Погода в Бокузе (Франция) (107 км)
Погода в Марсе (Франция) (120 км)
Погода в Лорьене (Франция) (132 км)

Пояснения к столбцам:

Ветер - указаны скорость ветра в м/с - средняя за 10 мин, порывы в срок и между сроками (в фигурных скобках) и направление, откуда дует ветер: С - северный, СВ - северо-восточный, В - восточный, ЮВ - юго-восточный, Ю - южный, ЮЗ - юго-западный, З - западный, СЗ - северо-западный.
Видимость - горизонтальная дальность видимости в метрах или километрах. При видимости от 1 до 10 км при отсутствии осадков обычно наблюдается дымка, при ухудшении видимости до 1 км и менее - туман. В сухую погоду видимость может ухудшаться дымом, пылью или мглою.
Явления - указаны атмосферные явления, наблюдавшиеся в срок или в последний час перед сроком; фигурными скобками обозначены явления, наблюдавшиеся между сроками (за 1-3 часа до срока); квадратными скобками обозначены град или гололедные отложения с указанием их диаметра в мм.
Облачность - указаны через наклонную черту общая и нижняя облачность в баллах и высота нижней границы облаков в метрах; квадратными скобками обозначены формы облаков: Ci - перистые, Cs - перисто-слоистые, Cc - перисто-кучевые, Ac - высококучевые, As - высокослоистые, Sc - слоисто-кучевые, Ns - слоисто-дождевые, Cu - кучевые, Cb - кучево-дождевые. Подробнее классификацию облаков см. в Атласе облаков (PDF).
T - Температура воздуха - температура, измеренная на высоте 2 м над землей.
Td - Температура точки росы - температура, при понижении до которой содержащийся в воздухе водяной пар достигнет насыщения.
f - Относительная влажность воздуха - влажноcть воздуха, измеренная на высоте 2 м над землей.
Te - Эффективная температура - температура, которую ощущает одетый по сезону человек в тени. Характеристика душности погоды. При расчете учитывается влияние влажности воздуха и скорости ветра на теплоощущения человека.
Tes - Эффективная температура на солнце - температура, которую ощущает человек, с поправкой на солнечный нагрев. Характеристика знойности погоды. Зависит от высоты солнца над горизонтом, облачности и скорости ветра. Ночью, в пасмурную погоду, а также при ветре 12 м/с и более поправка равна нулю.
P - Атмосферное давление - приведенное к уровню моря атмосферное давление.
Po - Атмосферное давление - измеренное на уровне метеостанции атмосферное давление.
Tmin - Минимальная температура - минимум температуры воздуха на высоте 2 м над землей.
Tmax - Максимальная температура - максимум температуры воздуха на высоте 2 м над землей.
R - Количество осадков - Количество выпавших осадков за период времени, мм. При наведении курсора мыши на число - период времени, за который выпало указанное количество осадков.
R24 - Количество осадков - Количество выпавших осадков за 24 часа, мм.
S - Снежный покров - Высота снежного покрова, см. При наведении курсора мыши на число - состояние снежного покрова и степень покрытия местности в баллах.